#timestamp,LO_Frequency,Hit,StdDev 
1659110415.1,286047001.2,N
1659110416.0,286047001.2,N
1659110435.8,286047001.0,N
1659110455.6,286047001.0,N
1659110475.5,286047000.5,N
1659110495.3,286047001.2,N
1659110515.2,286047000.9,N
1659110535.9,286047001.2,N
1659110555.7,286046999.6,N
1659110575.6,286046999.1,N
1659110595.4,286046999.0,N
1659110615.2,286046998.8,N
1659110635.1,286046996.5,N
1659110636.0,286046996.5,N
1659110655.8,286046998.4,N
1659110675.7,286046999.2,N
1659110695.5,286046999.3,N
1659110715.3,286046996.6,N
1659110735.2,286046996.9,N
1659110755.9,286046999.5,N
1659110775.7,286046999.4,N
1659110795.6,286046999.2,N
1659110815.4,286046999.5,N
1659110835.2,286046998.9,N
1659110855.1,286046999.0,N
1659110856.0,286046999.0,N
1659110875.8,286046999.4,N
1659110895.7,286046999.6,N
1659110915.5,286046996.5,N
1659110935.3,286046999.3,N
1659110955.2,286046999.5,N
1659110975.0,286046999.4,N
1659110975.9,286046999.4,N
1659110995.7,286046996.8,N
1659111015.6,286046999.5,N
1659111035.4,286046998.9,N
1659111055.3,286046998.7,N
1659111075.1,286046996.7,N
1659111076.0,286046996.7,N
1659111095.8,286046996.8,N
1659111115.7,286046996.6,N
1659111135.5,286046999.2,N
1659111155.3,286046998.4,N
1659111175.2,286046997.7,N
1659111195.0,286046997.7,N
1659111195.9,286046997.7,N
1659111215.8,286046997.2,N
1659111235.6,286046997.6,N
1659111255.4,286046996.2,Y
1659111275.3,286046998.0,P
1659111295.1,286046995.3,P
1659111315.9,286046996.8,N
1659111335.7,286046996.5,N
1659111355.5,286046997.6,N
1659111375.4,286046996.2,Y
1659111395.2,286046998.9,P
1659111415.0,286046998.1,N
1659111415.9,286046998.1,N
1659111435.8,286046998.2,N
1659111455.6,286047001.0,N
1659111475.5,286046999.9,N
1659111495.3,286047002.7,N
1659111515.1,286046999.7,N
1659111535.9,286047000.9,N
1659111555.7,286047000.7,N
1659111575.5,286047000.6,N
1659111595.4,286047000.5,N
1659111615.2,286047000.0,N
1659111635.1,286046998.9,N
1659111636.0,286046998.9,N
1659111655.8,286047000.8,N
1659111675.6,286047000.0,N
1659111695.5,286046999.7,N
1659111715.3,286047002.5,N
1659111735.1,286047000.4,N
1659111755.9,286047000.1,N
1659111775.7,286046999.7,N
1659111795.6,286047002.7,N
1659111815.4,286047002.6,N
1659111835.2,286047000.0,N
1659111855.1,286047000.7,N
1659111856.0,286047000.7,N
1659111875.8,286047001.0,N
1659111895.6,286046999.8,N
1659111915.5,286047002.7,N
1659111935.3,286046999.9,N
1659111955.1,286047002.8,N
1659111975.9,286047002.1,N
1659111995.7,286047002.2,N
1659112015.6,286046999.8,N
1659112035.4,286046999.7,N
1659112055.2,286047002.7,N
1659112075.1,286047001.6,N
1659112076.0,286047001.6,N
1659112095.8,286047001.9,N
1659112115.7,286047004.4,Y
1659112135.5,286046999.8,P
1659112155.3,286047002.3,P
1659112175.2,286047002.1,N
1659112195.9,286047002.8,N
1659112245.8,286047003.9,E
1659112255.7,286047001.7,N
1659112275.5,286046998.2,P
1659112295.4,286046998.2,N
1659112315.2,286046998.6,N
1659112335.0,286046998.9,N
1659112335.9,286046998.9,N
1659112355.8,286046999.6,N
1659112375.6,286046996.5,Y
1659112395.4,286046998.2,P
1659112415.3,286046999.3,N
1659112435.1,286046997.3,P
1659112455.9,286046996.8,Y
1659112475.7,286046996.5,P
1659112495.5,286046999.1,N
1659112515.4,286046998.4,N
1659112535.2,286046996.7,Y
1659112555.0,286046998.1,P
1659112556.0,286046998.1,P
1659112575.8,286046999.0,P
1659112595.6,286046995.0,Y
1659112615.5,286046997.5,P
1659112635.3,286046996.7,P
1659112655.1,286046996.9,P
1659112675.9,286046998.8,N
1659112695.7,286047000.9,N
1659112715.6,286046998.6,N
1659112735.4,286046998.4,N
1659112755.2,286046998.8,N
1659112775.1,286047001.0,N
1659112776.0,286047001.0,N
1659112795.8,286046998.9,N
1659112815.6,286046999.6,N
1659112835.5,286046999.5,N
1659112855.3,286047001.1,N
1659112875.1,286047002.3,N
1659112895.9,286047000.7,N
1659112915.7,286046998.7,N
1659112935.6,286047001.2,N
1659112955.4,286047001.2,N
1659112975.2,286047000.1,N
1659112995.1,286047000.2,N
1659112996.0,286047000.2,N
1659113015.8,286047000.3,N
1659113035.6,286047000.3,N
1659113055.5,286047002.7,N
1659113075.3,286047001.6,N
1659113095.2,286047001.9,N
1659113115.9,286046999.8,N
1659113135.7,286047002.2,N
1659113155.6,286047000.1,N
1659113175.4,286046998.6,N
1659113195.2,286047000.8,N
1659113215.1,286047000.4,N
1659113216.0,286047000.4,N
1659113235.8,286047000.3,N
1659113255.7,286046999.9,N
1659113275.5,286047000.3,N
1659113295.3,286046998.4,N
1659113315.2,286047001.0,N
1659113335.0,286046999.9,N
1659113335.9,286046999.9,N
1659113355.7,286047000.5,N
1659113375.6,286047002.7,N
1659113395.4,286047000.4,N
1659113415.3,286047002.2,N
1659113435.1,286047002.3,N
1659113436.0,286047002.3,N
1659113455.8,286047002.5,N
1659113475.7,286047002.8,N
1659113495.5,286047002.7,N
1659113515.3,286047002.8,N
1659113535.2,286047002.3,N
1659113555.0,286047002.5,N
1659113555.9,286047002.5,N
1659113575.8,286047002.3,N
1659113595.6,286047002.4,N
1659113615.4,286047002.1,N
1659113635.3,286047001.5,N
1659113655.1,286047002.5,N
1659113675.8,286047000.3,N
1659113695.7,286047000.2,N
1659113715.5,286047001.7,N
1659113735.4,286047004.3,Y
1659113755.2,286047000.4,P
1659113775.0,286046998.4,P
1659113775.9,286046998.4,N
1659113795.8,286047001.1,N
1659113815.6,286046999.1,N
1659113835.4,286046999.5,N
1659113855.3,286046996.5,Y
1659113875.1,286046998.1,P
1659113895.9,286047000.4,N
1659113915.7,286046999.8,N
1659113935.5,286047002.7,Y
1659113955.4,286047002.8,P
1659113975.2,286047000.4,N
1659113995.0,286047002.1,N
1659113996.0,286047002.1,N
